Regional Weather Roundup
Issued by NWS Portland, ME

Current Version | Previous Version | Text Only | Print | Product List | Glossary Off
Versions: 1 2 3 4 5 6 7 8 9 10 11 12 13 14 15 16 17 18 19 20 21 22 23 24 25 26 27 28 29 30 31 32 33 34 35 36 37 38 39 40 41 42 43 44 45 46 47 48 49 50
000 ASUS41 KGYX 210410 RWRGYX WEATHER ROUNDUP FOR MAINE AND NEW HAMPSHIRE NATIONAL WEATHER SERVICE GRAY ME 1200 AM EDT MON AUG 21 2017 MEZ002-005-006-010-012-015-018-020-021-024-026-027-029-210500- MAINE CITY SKY/WX TMP DP RH WIND PRES REMARKS PORTLAND CLEAR 63 56 78 CALM 30.07R SANFORD CLEAR 56 55 97 CALM 30.09R BAR HARBOR CLEAR 65 56 72 W6 30.02R WISCASSET CLEAR 59 57 93 CALM 30.06R ROCKLAND CLEAR 61 56 83 W3 30.04R FRYEBURG CLEAR 56 56 100 W6 30.08R LEWISTONAUBURN CLEAR 58 57 97 CALM 30.07R AUGUSTA CLEAR 65 56 72 CALM 30.06R WATERVILLE CLEAR 65 58 78 SW3 30.02R BANGOR CLEAR 65 57 75 W5 30.02R GREENVILLE N/A 65 58 78 VRB6 30.02R MILLINOCKET CLEAR 60 59 96 NW5 30.01R HOULTON CLEAR 64 58 80 CALM 29.95R PRESQUE ISLE CLEAR 63 57 81 W7 29.96R FRENCHVILLE CLEAR 61 56 83 W13 29.93R CARIBOU CLEAR 62 57 83 SW5 29.93R $$ NHZ002-005-008-009-011-012-014-210500- NEW HAMPSHIRE CITY SKY/WX TMP DP RH WIND PRES REMARKS PORTSMOUTH CLEAR 63 59 87 SW5 30.07R ROCHESTER CLEAR 61 56 83 CALM 30.08R NASHUA CLEAR 63 60 90 CALM 30.11R MANCHESTER CLEAR 67 57 70 S3 30.09R CONCORD CLEAR 59 57 93 CALM 30.10R LACONIA CLEAR 59 57 93 CALM 30.11R PLYMOUTH FAIR 56 55 95 CALM 30.11R FOG BERLIN CLEAR 54 50 86 VRB3 30.11R WHITEFIELD CLEAR 54 50 86 CALM 30.12R JAFFREY CLEAR 62 60 93 CALM 30.15R KEENE N/A N/A N/A N/A MISG N/A LEBANON CLEAR 59 58 96 CALM 30.11R MT WASHINGTON FOG 46 46 100 W45G53 N/A VSB 1/16 $$ VTZ005-007-008-210500- VERMONT CITY SKY/WX TMP DP RH WIND PRES REMARKS ST JOHNSBURY N/A 59 59 100 MISG 30.10R MONTPELIER CLEAR 59 57 93 CALM 30.15R BURLINGTON CLEAR 64 61 90 E3 30.09R $$ MAZ007-012-024-CTZ003-RIZ002-NYZ038-NYZ072-210500- SOUTHERN NEW ENGLAND AND NY CITY SKY/WX TMP DP RH WIND PRES REMARKS BOSTON CLEAR 74 57 55 W7 30.10R WORCESTER CLEAR 66 55 67 W9 30.15R NANTUCKET CLEAR 64 64 100 CALM 30.11R PROVIDENCE CLEAR 68 60 75 W6 30.13R HARTFORD CLEAR 65 60 84 W3 30.14R ALBANY CLEAR 66 59 78 CALM 30.14R NEW YORK CITY PTCLDY 78 64 61 NW5 30.15R $$ ANZ081-ANZ082-ANZ150-NHZ014-MEZ023>029-210500- COASTAL MARINE OBSERVATIONS STATION/POSITION TIME TEMP WIND PRES WAVE AIR SEA DIR/SP/G HT/PER (UTC) (F) (DEG/KT/KT) (MB) (FT/S) MOUNT DESERT ROC 0400 63 1016.8R MATINICUS ROCK 0300 67 280/ 16/ 17 1016.4R ISLE OF SHOALS 0300 68 260/ 3/ 4 1017.9R JEFFREYS LEDGE 0336 65 N/A 2/ 6 CASHES LEDGE BUO 0250 70 69 1017.2 3/ 7 GEORGES BANK BUO 0250 66 65 1017.1 3/ 6 $$ .............KEY.............. WCI - WIND CHILL TC - TEMPERATURE IN CELSIUS VSB - VISIBILITY IN MILES HX - HEAT INDEX FAIR- INDICATES FEW OR NO CLOUDS BELOW 12,000 FT, WITH NO SIGNIFICANT WEATHER AND/OR OBSTRUCTIONS TO VISIBILITY.

USA.gov is the U.S. government's official web portal to all federal, state and local government web resources and services.